Wetterdaten: Sonntag, 19.05.2013
Datum Zeit Temperatur Luftfeuchte Luftdruck Regen Wind Richtung Richtung Taupunkt Windchill Windben
19.05.2013 00:00 12,1 C 57 % 1010,1 hPa 0,0 l/m 1,1 km/h (1 Bft) NO 45 3,8 C 12,2 C 0,0 km/h (0 Bft)
19.05.2013 00:05 12,3 C 56 % 1009,8 hPa 0,0 l/m 1,4 km/h (1 Bft) N-NO 22 3,8 C 12,2 C 3,4 km/h (1 Bft)
19.05.2013 00:10 12,4 C 57 % 1009,8 hPa 0,0 l/m 1,8 km/h (1 Bft) O 90 4,1 C 12,4 C 2,6 km/h (1 Bft)
19.05.2013 00:15 12,5 C 56 % 1009,8 hPa 0,0 l/m 2,1 km/h (1 Bft) NO 45 4,0 C 12,4 C 3,2 km/h (1 Bft)
19.05.2013 00:20 12,6 C 56 % 1009,8 hPa 0,0 l/m 2,4 km/h (1 Bft) O-NO 67 4,1 C 12,5 C 3,1 km/h (1 Bft)
19.05.2013 00:25 12,5 C 56 % 1009,2 hPa 0,0 l/m 2,4 km/h (1 Bft) NO 45 4,0 C 12,5 C 3,9 km/h (1 Bft)
19.05.2013 00:30 12,3 C 57 % 1009,2 hPa 0,0 l/m 2,4 km/h (1 Bft) O-SO 112 4,0 C 12,7 C 3,5 km/h (1 Bft)
19.05.2013 00:35 12,3 C 57 % 1009,2 hPa 0,0 l/m 2,1 km/h (1 Bft) N-NO 22 4,0 C 12,7 C 5,5 km/h (1 Bft)
19.05.2013 00:40 12,4 C 57 % 1009,2 hPa 0,0 l/m 1,9 km/h (1 Bft) O-NO 67 4,1 C 12,8 C 3,7 km/h (1 Bft)
19.05.2013 00:45 12,6 C 56 % 1009,2 hPa 0,0 l/m 1,9 km/h (1 Bft) N-NO 22 4,1 C 12,9 C 1,6 km/h (1 Bft)
19.05.2013 00:50 13,1 C 54 % 1009,2 hPa 0,0 l/m 2,6 km/h (1 Bft) O-NO 67 4,0 C 13,2 C 2,9 km/h (1 Bft)
19.05.2013 00:55 13,2 C 52 % 1009,2 hPa 0,0 l/m 2,7 km/h (1 Bft) NO 45 3,6 C 13,3 C 6,1 km/h (2 Bft)
19.05.2013 01:00 13,2 C 53 % 1009,2 hPa 0,0 l/m 2,7 km/h (1 Bft) O 90 3,8 C 13,4 C 3,9 km/h (1 Bft)
19.05.2013 01:05 13,3 C 53 % 1009,1 hPa 0,0 l/m 2,9 km/h (1 Bft) NO 45 3,9 C 13,4 C 4,5 km/h (1 Bft)
19.05.2013 01:10 13,2 C 53 % 1009,1 hPa 0,0 l/m 2,4 km/h (1 Bft) NO 45 3,8 C 13,4 C 2,4 km/h (1 Bft)
19.05.2013 01:15 13,2 C 53 % 1009,1 hPa 0,0 l/m 1,9 km/h (1 Bft) N-NO 22 3,8 C 13,4 C 3,1 km/h (1 Bft)
19.05.2013 01:20 13,3 C 53 % 1009,1 hPa 0,0 l/m 2,3 km/h (1 Bft) NO 45 3,9 C 13,4 C 3,7 km/h (1 Bft)
19.05.2013 01:25 13,5 C 53 % 1008,9 hPa 0,0 l/m 3,1 km/h (1 Bft) O-NO 67 4,1 C 13,5 C 4,5 km/h (1 Bft)
19.05.2013 01:30 13,4 C 53 % 1008,9 hPa 0,0 l/m 3,1 km/h (1 Bft) O-NO 67 4,0 C 13,7 C 3,5 km/h (1 Bft)
19.05.2013 01:35 13,5 C 53 % 1008,9 hPa 0,0 l/m 2,6 km/h (1 Bft) NO 45 4,1 C 13,7 C 1,6 km/h (1 Bft)
19.05.2013 01:40 13,0 C 55 % 1008,9 hPa 0,0 l/m 1,4 km/h (1 Bft) O-SO 112 4,2 C 13,4 C 0,0 km/h (0 Bft)
19.05.2013 01:45 12,6 C 56 % 1009,0 hPa 0,0 l/m 0,3 km/h (0 Bft) NW 315 4,1 C 13,3 C 0,0 km/h (0 Bft)
19.05.2013 01:50 12,6 C 56 % 1009,0 hPa 0,0 l/m 0,2 km/h (0 Bft) NO 45 4,1 C 13,1 C 2,4 km/h (1 Bft)
19.05.2013 01:55 12,7 C 56 % 1009,0 hPa 0,0 l/m 0,5 km/h (0 Bft) NO 45 4,2 C 13,0 C 2,6 km/h (1 Bft)
19.05.2013 02:00 12,7 C 56 % 1009,0 hPa 0,0 l/m 1,3 km/h (1 Bft) O 90 4,2 C 12,9 C 2,1 km/h (1 Bft)
19.05.2013 02:05 12,7 C 56 % 1008,6 hPa 0,0 l/m 1,1 km/h (1 Bft) O 90 4,2 C 12,9 C 0,0 km/h (0 Bft)
19.05.2013 02:10 12,7 C 56 % 1008,6 hPa 0,0 l/m 0,8 km/h (0 Bft) NO 45 4,2 C 12,8 C 1,6 km/h (1 Bft)
19.05.2013 02:15 12,5 C 57 % 1008,6 hPa 0,0 l/m 0,3 km/h (0 Bft) NO 45 4,2 C 12,7 C 0,0 km/h (0 Bft)
19.05.2013 02:20 12,5 C 57 % 1008,6 hPa 0,0 l/m 0,5 km/h (0 Bft) NO 45 4,2 C 12,6 C 0,0 km/h (0 Bft)
19.05.2013 02:25 12,3 C 57 % 1008,9 hPa 0,0 l/m 0,6 km/h (0 Bft) O 90 4,0 C 12,5 C 0,0 km/h (0 Bft)
19.05.2013 02:30 12,2 C 58 % 1008,9 hPa 0,0 l/m 1,0 km/h (0 Bft) S-SO 157 4,2 C 12,6 C 3,1 km/h (1 Bft)
19.05.2013 02:35 12,2 C 58 % 1008,9 hPa 0,0 l/m 1,8 km/h (1 Bft) NO 45 4,2 C 12,8 C 1,9 km/h (1 Bft)
19.05.2013 02:40 12,4 C 58 % 1008,9 hPa 0,0 l/m 2,1 km/h (1 Bft) W-NW 292 4,4 C 12,9 C 2,3 km/h (1 Bft)
19.05.2013 02:45 12,6 C 58 % 1008,9 hPa 0,0 l/m 2,3 km/h (1 Bft) NO 45 4,6 C 13,1 C 5,3 km/h (1 Bft)
19.05.2013 02:50 13,0 C 55 % 1008,9 hPa 0,0 l/m 2,4 km/h (1 Bft) O-SO 112 4,2 C 13,5 C 1,9 km/h (1 Bft)
19.05.2013 02:55 13,2 C 54 % 1008,9 hPa 0,0 l/m 1,9 km/h (1 Bft) N-NW 337 4,1 C 13,6 C 11,7 km/h (2 Bft)
19.05.2013 03:00 12,9 C 56 % 1008,9 hPa 0,0 l/m 1,9 km/h (1 Bft) N 360 4,3 C 13,5 C 3,5 km/h (1 Bft)
19.05.2013 03:05 12,8 C 56 % 1008,3 hPa 0,0 l/m 1,8 km/h (1 Bft) S 180 4,2 C 13,4 C 1,8 km/h (1 Bft)
19.05.2013 03:10 13,1 C 55 % 1008,3 hPa 0,0 l/m 2,7 km/h (1 Bft) O-SO 112 4,3 C 13,5 C 3,4 km/h (1 Bft)
19.05.2013 03:15 13,0 C 55 % 1008,3 hPa 0,0 l/m 3,4 km/h (1 Bft) O 90 4,2 C 13,4 C 3,9 km/h (1 Bft)
19.05.2013 03:20 12,8 C 56 % 1008,3 hPa 0,0 l/m 3,2 km/h (1 Bft) O-NO 67 4,2 C 13,3 C 2,4 km/h (1 Bft)
19.05.2013 03:25 12,8 C 56 % 1008,4 hPa 0,0 l/m 2,1 km/h (1 Bft) O-NO 67 4,2 C 13,1 C 0,0 km/h (0 Bft)
19.05.2013 03:30 12,7 C 56 % 1008,4 hPa 0,0 l/m 1,3 km/h (1 Bft) NO 45 4,2 C 12,9 C 3,7 km/h (1 Bft)
19.05.2013 03:35 12,6 C 56 % 1008,4 hPa 0,0 l/m 1,4 km/h (1 Bft) N-NO 22 4,1 C 12,9 C 2,7 km/h (1 Bft)
19.05.2013 03:40 12,4 C 57 % 1008,4 hPa 0,0 l/m 1,4 km/h (1 Bft) NO 45 4,1 C 12,9 C 0,0 km/h (0 Bft)
19.05.2013 03:45 12,4 C 58 % 1008,7 hPa 0,0 l/m 1,4 km/h (1 Bft) NO 45 4,4 C 12,9 C 3,4 km/h (1 Bft)
19.05.2013 03:50 12,2 C 58 % 1008,7 hPa 0,0 l/m 1,3 km/h (1 Bft) W-NW 292 4,2 C 12,9 C 0,0 km/h (0 Bft)
19.05.2013 03:55 12,2 C 58 % 1008,7 hPa 0,0 l/m 1,1 km/h (1 Bft) W-SW 247 4,2 C 12,9 C 0,0 km/h (0 Bft)
19.05.2013 04:00 12,2 C 58 % 1008,7 hPa 0,0 l/m 0,3 km/h (0 Bft) SO 135 4,2 C 12,8 C 2,1 km/h (1 Bft)
19.05.2013 04:05 12,3 C 58 % 1008,4 hPa 0,0 l/m 0,5 km/h (0 Bft) S-SW 202 4,3 C 12,8 C 0,0 km/h (0 Bft)
19.05.2013 04:10 12,3 C 58 % 1008,4 hPa 0,0 l/m 0,8 km/h (0 Bft) O 90 4,3 C 12,9 C 0,0 km/h (0 Bft)
19.05.2013 04:15 12,4 C 58 % 1008,4 hPa 0,0 l/m 1,4 km/h (1 Bft) S-SO 157 4,4 C 12,9 C 2,3 km/h (1 Bft)
19.05.2013 04:20 12,6 C 57 % 1008,4 hPa 0,0 l/m 1,6 km/h (1 Bft) NO 45 4,3 C 12,9 C 4,2 km/h (1 Bft)
19.05.2013 04:25 12,7 C 57 % 1008,2 hPa 0,0 l/m 1,8 km/h (1 Bft) SO 135 4,4 C 12,9 C 0,0 km/h (0 Bft)
19.05.2013 04:30 12,2 C 58 % 1008,2 hPa 0,0 l/m 1,1 km/h (1 Bft) W-NW 292 4,2 C 12,7 C 0,0 km/h (0 Bft)
19.05.2013 04:35 12,1 C 58 % 1008,2 hPa 0,0 l/m 0,6 km/h (0 Bft) W-SW 247 4,1 C 12,7 C 0,0 km/h (0 Bft)
19.05.2013 04:40 12,2 C 58 % 1008,2 hPa 0,0 l/m 0,6 km/h (0 Bft) NO 45 4,2 C 12,7 C 0,0 km/h (0 Bft)
19.05.2013 04:45 12,1 C 59 % 1008,0 hPa 0,0 l/m 0,6 km/h (0 Bft) N-NO 22 4,3 C 12,7 C 2,4 km/h (1 Bft)
19.05.2013 04:50 12,2 C 59 % 1008,0 hPa 0,0 l/m 1,0 km/h (0 Bft) NO 45 4,4 C 12,9 C 0,0 km/h (0 Bft)
19.05.2013 04:55 12,2 C 58 % 1008,0 hPa 0,0 l/m 0,8 km/h (0 Bft) O 90 4,2 C 12,8 C 0,0 km/h (0 Bft)
19.05.2013 05:00 12,5 C 58 % 1008,0 hPa 0,0 l/m 0,6 km/h (0 Bft) N 360 4,5 C 12,9 C 1,9 km/h (1 Bft)
19.05.2013 05:05 12,7 C 58 % 1008,1 hPa 0,0 l/m 1,6 km/h (1 Bft) W-NW 292 4,7 C 12,9 C 3,9 km/h (1 Bft)
19.05.2013 05:10 12,7 C 58 % 1008,1 hPa 0,0 l/m 2,1 km/h (1 Bft) N-NO 22 4,7 C 13,1 C 1,8 km/h (1 Bft)
19.05.2013 05:15 12,7 C 58 % 1008,1 hPa 0,0 l/m 1,4 km/h (1 Bft) NO 45 4,7 C 13,1 C 2,3 km/h (1 Bft)
19.05.2013 05:20 12,5 C 59 % 1008,1 hPa 0,0 l/m 1,1 km/h (1 Bft) O-NO 67 4,7 C 12,9 C 2,3 km/h (1 Bft)
19.05.2013 05:25 12,3 C 58 % 1008,0 hPa 0,0 l/m 1,1 km/h (1 Bft) O 90 4,3 C 12,9 C 0,0 km/h (0 Bft)
19.05.2013 05:30 12,3 C 59 % 1008,0 hPa 0,0 l/m 0,5 km/h (0 Bft) NO 45 4,5 C 12,8 C 0,0 km/h (0 Bft)
19.05.2013 05:35 12,2 C 59 % 1008,0 hPa 0,0 l/m 0,5 km/h (0 Bft) NO 45 4,4 C 12,7 C 0,0 km/h (0 Bft)
19.05.2013 05:40 12,4 C 59 % 1008,0 hPa 0,0 l/m 1,6 km/h (1 Bft) O-NO 67 4,6 C 12,5 C 4,5 km/h (1 Bft)
19.05.2013 05:45 12,5 C 59 % 1007,8 hPa 0,0 l/m 2,7 km/h (1 Bft) NO 45 4,7 C 12,7 C 4,3 km/h (1 Bft)
19.05.2013 05:50 12,7 C 59 % 1007,8 hPa 0,0 l/m 3,5 km/h (1 Bft) O-NO 67 4,9 C 12,9 C 5,5 km/h (1 Bft)
19.05.2013 05:55 12,8 C 59 % 1007,8 hPa 0,0 l/m 3,4 km/h (1 Bft) O 90 5,0 C 13,0 C 3,2 km/h (1 Bft)
19.05.2013 06:00 12,9 C 59 % 1007,8 hPa 0,0 l/m 3,4 km/h (1 Bft) O-NO 67 5,1 C 13,1 C 5,3 km/h (1 Bft)
19.05.2013 06:05 12,9 C 59 % 1008,3 hPa 0,0 l/m 3,4 km/h (1 Bft) O-NO 67 5,1 C 13,1 C 7,4 km/h (2 Bft)
19.05.2013 06:10 12,9 C 61 % 1008,3 hPa 0,0 l/m 2,1 km/h (1 Bft) O-SO 112 5,6 C 13,2 C 2,3 km/h (1 Bft)
19.05.2013 06:15 13,5 C 60 % 1008,3 hPa 0,0 l/m 1,1 km/h (1 Bft) S 180 5,9 C 13,4 C 0,0 km/h (0 Bft)
19.05.2013 06:20 14,3 C 58 % 1008,3 hPa 0,0 l/m 1,4 km/h (1 Bft) O 90 6,2 C 13,8 C 3,4 km/h (1 Bft)
19.05.2013 06:25 13,8 C 58 % 1008,7 hPa 0,0 l/m 2,3 km/h (1 Bft) O-NO 67 5,7 C 14,1 C 3,4 km/h (1 Bft)
19.05.2013 06:30 13,5 C 59 % 1008,7 hPa 0,0 l/m 2,9 km/h (1 Bft) O 90 5,6 C 14,1 C 3,4 km/h (1 Bft)
19.05.2013 06:35 13,5 C 59 % 1008,7 hPa 0,0 l/m 2,4 km/h (1 Bft) S-SO 157 5,6 C 14,3 C 2,9 km/h (1 Bft)
19.05.2013 06:40 13,2 C 59 % 1008,7 hPa 0,0 l/m 1,1 km/h (1 Bft) S 180 5,4 C 14,2 C 0,0 km/h (0 Bft)
19.05.2013 06:45 13,2 C 60 % 1008,2 hPa 0,0 l/m 1,0 km/h (0 Bft) S 180 5,6 C 14,0 C 0,0 km/h (0 Bft)
19.05.2013 06:50 13,3 C 61 % 1008,2 hPa 0,0 l/m 1,9 km/h (1 Bft) S 180 5,9 C 13,9 C 1,6 km/h (1 Bft)
19.05.2013 06:55 13,1 C 62 % 1008,2 hPa 0,0 l/m 1,9 km/h (1 Bft) N-NO 22 6,0 C 13,8 C 2,3 km/h (1 Bft)
19.05.2013 07:00 13,1 C 62 % 1008,2 hPa 0,0 l/m 1,3 km/h (1 Bft) SO 135 6,0 C 13,6 C 0,0 km/h (0 Bft)
19.05.2013 07:05 13,4 C 64 % 1008,0 hPa 0,0 l/m 0,8 km/h (0 Bft) N 360 6,7 C 13,7 C 1,9 km/h (1 Bft)
19.05.2013 07:10 14,1 C 63 % 1008,0 hPa 0,0 l/m 0,3 km/h (0 Bft) W-NW 292 7,2 C 14,2 C 0,0 km/h (0 Bft)
19.05.2013 07:15 14,5 C 62 % 1008,0 hPa 0,0 l/m 0,2 km/h (0 Bft) O-NO 67 7,3 C 14,6 C 1,9 km/h (1 Bft)
19.05.2013 07:20 14,5 C 64 % 1008,0 hPa 0,0 l/m 0,6 km/h (0 Bft) S 180 7,8 C 15,0 C 2,4 km/h (1 Bft)
19.05.2013 07:25 14,4 C 63 % 1007,9 hPa 0,0 l/m 0,6 km/h (0 Bft) O 90 7,4 C 15,0 C 0,0 km/h (0 Bft)
19.05.2013 07:30 14,2 C 64 % 1007,9 hPa 0,0 l/m 0,8 km/h (0 Bft) O 90 7,5 C 15,0 C 0,0 km/h (0 Bft)
19.05.2013 07:35 14,2 C 63 % 1007,9 hPa 0,0 l/m 1,1 km/h (1 Bft) O-SO 112 7,3 C 15,0 C 2,6 km/h (1 Bft)
19.05.2013 07:40 13,8 C 65 % 1007,9 hPa 0,0 l/m 1,1 km/h (1 Bft) NO 45 7,3 C 14,8 C 0,0 km/h (0 Bft)
19.05.2013 07:45 13,8 C 65 % 1008,0 hPa 0,0 l/m 1,0 km/h (0 Bft) O-SO 112 7,3 C 14,6 C 0,0 km/h (0 Bft)
19.05.2013 07:50 13,8 C 65 % 1008,0 hPa 0,0 l/m 0,2 km/h (0 Bft) O-SO 112 7,3 C 14,5 C 0,0 km/h (0 Bft)
19.05.2013 07:55 13,7 C 66 % 1008,0 hPa 0,0 l/m 0,0 km/h (0 Bft) O-NO 67 7,5 C 14,5 C 0,0 km/h (0 Bft)
19.05.2013 08:00 13,8 C 64 % 1008,0 hPa 0,0 l/m 1,0 km/h (0 Bft) S 180 7,1 C 14,4 C 7,6 km/h (2 Bft)
19.05.2013 08:05 13,8 C 64 % 1008,0 hPa 0,0 l/m 1,9 km/h (1 Bft) S 180 7,1 C 14,4 C 5,0 km/h (1 Bft)
19.05.2013 08:10 13,7 C 62 % 1008,0 hPa 0,0 l/m 3,4 km/h (1 Bft) S-SO 157 6,6 C 14,4 C 5,3 km/h (1 Bft)
19.05.2013 08:15 13,6 C 60 % 1008,0 hPa 0,0 l/m 5,0 km/h (1 Bft) O-SO 112 6,0 C 14,3 C 8,0 km/h (2 Bft)
19.05.2013 08:20 13,3 C 61 % 1008,0 hPa 0,0 l/m 5,1 km/h (1 Bft) SO 135 5,9 C 14,1 C 3,4 km/h (1 Bft)
19.05.2013 08:25 13,1 C 61 % 1008,4 hPa 0,0 l/m 4,2 km/h (1 Bft) S 180 5,8 C 13,9 C 12,9 km/h (3 Bft)
19.05.2013 08:30 12,9 C 64 % 1008,4 hPa 0,0 l/m 4,3 km/h (1 Bft) S 180 6,3 C 13,6 C 7,7 km/h (2 Bft)
19.05.2013 08:35 12,8 C 64 % 1008,4 hPa 0,0 l/m 5,0 km/h (1 Bft) S-SO 157 6,2 C 13,4 C 5,5 km/h (1 Bft)
19.05.2013 08:40 12,6 C 67 % 1008,4 hPa 0,0 l/m 6,9 km/h (2 Bft) S 180 6,6 C 12,5 C 11,9 km/h (2 Bft)
19.05.2013 08:45 12,4 C 68 % 1008,9 hPa 0,0 l/m 7,6 km/h (2 Bft) S 180 6,7 C 11,6 C 13,8 km/h (3 Bft)
19.05.2013 08:50 12,2 C 69 % 1008,9 hPa 0,0 l/m 6,6 km/h (2 Bft) W-SW 247 6,7 C 12,2 C 6,1 km/h (2 Bft)
19.05.2013 08:55 12,1 C 69 % 1008,9 hPa 0,0 l/m 5,0 km/h (1 Bft) S 180 6,6 C 12,4 C 7,2 km/h (2 Bft)
19.05.2013 09:00 12,0 C 70 % 1008,9 hPa 0,0 l/m 5,6 km/h (1 Bft) S-SO 157 6,7 C 12,2 C 8,0 km/h (2 Bft)
19.05.2013 09:05 11,9 C 71 % 1009,1 hPa 0,0 l/m 6,6 km/h (2 Bft) S 180 6,8 C 11,8 C 14,0 km/h (3 Bft)
19.05.2013 09:10 12,0 C 71 % 1009,1 hPa 0,0 l/m 5,6 km/h (1 Bft) S 180 6,9 C 12,1 C 9,7 km/h (2 Bft)
19.05.2013 09:15 12,0 C 71 % 1009,1 hPa 0,0 l/m 5,6 km/h (1 Bft) S-SW 202 6,9 C 12,1 C 8,7 km/h (2 Bft)
19.05.2013 09:20 12,0 C 70 % 1009,1 hPa 0,0 l/m 6,4 km/h (2 Bft) S 180 6,7 C 11,9 C 10,8 km/h (2 Bft)
19.05.2013 09:25 11,9 C 70 % 1009,0 hPa 0,0 l/m 6,6 km/h (2 Bft) W-SW 247 6,6 C 11,8 C 9,5 km/h (2 Bft)
19.05.2013 09:30 11,9 C 69 % 1009,0 hPa 0,0 l/m 8,5 km/h (2 Bft) S-SW 202 6,4 C 10,1 C 10,6 km/h (2 Bft)
19.05.2013 09:35 12,1 C 69 % 1009,0 hPa 0,0 l/m 8,4 km/h (2 Bft) S-SW 202 6,6 C 10,3 C 19,0 km/h (3 Bft)
19.05.2013 09:40 12,2 C 69 % 1009,0 hPa 0,0 l/m 7,7 km/h (2 Bft) S 180 6,7 C 10,9 C 9,0 km/h (2 Bft)
19.05.2013 09:45 12,4 C 69 % 1009,0 hPa 0,0 l/m 6,6 km/h (2 Bft) S-SO 157 6,9 C 12,2 C 4,7 km/h (1 Bft)
19.05.2013 09:50 12,5 C 69 % 1009,0 hPa 0,0 l/m 6,8 km/h (2 Bft) W-SW 247 7,0 C 12,2 C 8,5 km/h (2 Bft)
19.05.2013 09:55 12,6 C 69 % 1009,0 hPa 0,0 l/m 8,0 km/h (2 Bft) S-SW 202 7,1 C 11,4 C 13,2 km/h (3 Bft)
19.05.2013 10:00 12,6 C 68 % 1009,0 hPa 0,0 l/m 9,0 km/h (2 Bft) S-SO 157 6,9 C 10,6 C 9,3 km/h (2 Bft)
19.05.2013 10:05 12,7 C 69 % 1009,2 hPa 0,0 l/m 8,9 km/h (2 Bft) S-SO 157 7,2 C 10,7 C 12,6 km/h (3 Bft)
19.05.2013 10:10 12,7 C 69 % 1009,2 hPa 0,0 l/m 7,9 km/h (2 Bft) S-SO 157 7,2 C 11,4 C 9,3 km/h (2 Bft)
19.05.2013 10:15 13,0 C 67 % 1009,2 hPa 0,0 l/m 8,4 km/h (2 Bft) S 180 7,0 C 11,3 C 8,2 km/h (2 Bft)
19.05.2013 10:20 13,3 C 67 % 1009,2 hPa 0,0 l/m 7,2 km/h (2 Bft) S 180 7,3 C 12,8 C 12,9 km/h (3 Bft)
19.05.2013 10:25 13,7 C 64 % 1009,2 hPa 0,0 l/m 7,7 km/h (2 Bft) S-SO 157 7,0 C 12,6 C 9,0 km/h (2 Bft)
19.05.2013 10:30 13,4 C 64 % 1009,2 hPa 0,0 l/m 8,2 km/h (2 Bft) S-SW 202 6,7 C 12,5 C 9,5 km/h (2 Bft)
19.05.2013 10:35 13,6 C 64 % 1009,2 hPa 0,0 l/m 8,5 km/h (2 Bft) S-SW 202 6,9 C 12,0 C 6,9 km/h (2 Bft)
19.05.2013 10:40 13,9 C 62 % 1009,2 hPa 0,0 l/m 10,0 km/h (2 Bft) SO 135 6,7 C 11,4 C 11,7 km/h (2 Bft)
19.05.2013 10:45 13,4 C 63 % 1009,2 hPa 0,0 l/m 10,8 km/h (2 Bft) S-SW 202 6,5 C 10,9 C 21,7 km/h (4 Bft)
19.05.2013 10:50 13,7 C 63 % 1009,2 hPa 0,0 l/m 11,3 km/h (2 Bft) S-SO 157 6,8 C 10,5 C 9,3 km/h (2 Bft)
19.05.2013 10:55 13,7 C 63 % 1009,2 hPa 0,0 l/m 11,1 km/h (2 Bft) W-SW 247 6,8 C 10,8 C 23,3 km/h (4 Bft)
19.05.2013 11:00 13,9 C 63 % 1009,2 hPa 0,0 l/m 10,0 km/h (2 Bft) S 180 7,0 C 11,9 C 11,6 km/h (2 Bft)
19.05.2013 11:05 14,0 C 64 % 1009,4 hPa 0,0 l/m 8,7 km/h (2 Bft) SW 225 7,3 C 12,8 C 8,5 km/h (2 Bft)
19.05.2013 11:10 14,0 C 64 % 1009,4 hPa 0,0 l/m 7,7 km/h (2 Bft) SW 225 7,3 C 13,6 C 5,3 km/h (1 Bft)
19.05.2013 11:15 14,4 C 64 % 1009,4 hPa 0,0 l/m 7,6 km/h (2 Bft) W-SW 247 7,7 C 13,7 C 7,7 km/h (2 Bft)
19.05.2013 11:20 14,1 C 62 % 1009,4 hPa 0,0 l/m 9,3 km/h (2 Bft) S 180 6,9 C 12,8 C 13,2 km/h (3 Bft)
19.05.2013 11:25 16,3 C 60 % 1009,7 hPa 0,0 l/m 9,0 km/h (2 Bft) S-SW 202 8,5 C 13,2 C 3,9 km/h (1 Bft)
19.05.2013 11:30 15,3 C 58 % 1009,7 hPa 0,0 l/m 8,7 km/h (2 Bft) S 180 7,1 C 15,1 C 9,7 km/h (2 Bft)
19.05.2013 11:35 14,9 C 60 % 1009,7 hPa 0,0 l/m 8,4 km/h (2 Bft) S 180 7,2 C 14,6 C 12,9 km/h (3 Bft)
19.05.2013 11:40 14,4 C 62 % 1009,7 hPa 0,0 l/m 7,4 km/h (2 Bft) S-SO 157 7,2 C 14,9 C 11,9 km/h (2 Bft)
19.05.2013 11:45 14,1 C 63 % 1010,1 hPa 0,0 l/m 7,4 km/h (2 Bft) S 180 7,2 C 14,5 C 6,1 km/h (2 Bft)
19.05.2013 11:50 13,7 C 65 % 1010,1 hPa 0,0 l/m 8,0 km/h (2 Bft) S 180 7,2 C 13,4 C 11,6 km/h (2 Bft)
19.05.2013 11:55 13,6 C 64 % 1010,1 hPa 0,0 l/m 9,7 km/h (2 Bft) S-SW 202 6,9 C 11,9 C 18,2 km/h (3 Bft)
19.05.2013 12:00 13,8 C 66 % 1010,1 hPa 0,0 l/m 10,3 km/h (2 Bft) S-SW 202 7,6 C 10,8 C 10,3 km/h (2 Bft)
19.05.2013 12:05 13,5 C 66 % 1010,1 hPa 0,0 l/m 10,8 km/h (2 Bft) SO 135 7,3 C 10,3 C 24,1 km/h (4 Bft)
19.05.2013 12:10 13,3 C 66 % 1010,1 hPa 0,0 l/m 9,2 km/h (2 Bft) S 180 7,1 C 11,0 C 6,0 km/h (2 Bft)
19.05.2013 12:15 13,2 C 66 % 1010,1 hPa 0,0 l/m 8,9 km/h (2 Bft) S 180 7,0 C 11,3 C 9,7 km/h (2 Bft)
19.05.2013 12:20 13,0 C 66 % 1010,1 hPa 0,0 l/m 9,5 km/h (2 Bft) S 180 6,8 C 11,4 C 11,3 km/h (2 Bft)
19.05.2013 12:25 12,9 C 67 % 1010,4 hPa 0,0 l/m 10,3 km/h (2 Bft) SW 225 6,9 C 10,6 C 17,1 km/h (3 Bft)
19.05.2013 12:30 12,9 C 67 % 1010,4 hPa 0,0 l/m 11,4 km/h (2 Bft) S 180 6,9 C 9,7 C 8,9 km/h (2 Bft)
19.05.2013 12:35 13,0 C 66 % 1010,4 hPa 0,0 l/m 10,9 km/h (2 Bft) S 180 6,8 C 10,1 C 11,7 km/h (2 Bft)
19.05.2013 12:40 13,1 C 65 % 1010,4 hPa 0,0 l/m 10,5 km/h (2 Bft) S-SO 157 6,7 C 10,3 C 9,8 km/h (2 Bft)
19.05.2013 12:45 14,1 C 63 % 1010,8 hPa 0,0 l/m 11,3 km/h (2 Bft) S-SW 202 7,2 C 10,7 C 18,8 km/h (3 Bft)
19.05.2013 12:50 13,5 C 63 % 1010,8 hPa 0,0 l/m 11,4 km/h (2 Bft) S 180 6,6 C 11,3 C 19,8 km/h (3 Bft)
19.05.2013 12:55 12,7 C 66 % 1010,8 hPa 0,0 l/m 12,4 km/h (3 Bft) S-SW 202 6,5 C 9,7 C 15,1 km/h (3 Bft)
19.05.2013 13:00 11,2 C 70 % 1010,8 hPa 0,0 l/m 12,7 km/h (3 Bft) S 180 5,9 C 7,5 C 18,0 km/h (3 Bft)
19.05.2013 13:05 10,7 C 72 % 1011,4 hPa 0,0 l/m 12,7 km/h (3 Bft) S-SW 202 5,9 C 6,4 C 17,9 km/h (3 Bft)
19.05.2013 13:10 10,3 C 73 % 1011,4 hPa 0,0 l/m 12,2 km/h (2 Bft) W-SW 247 5,7 C 5,5 C 7,4 km/h (2 Bft)
19.05.2013 13:15 10,2 C 74 % 1011,4 hPa 0,0 l/m 10,8 km/h (2 Bft) S 180 5,8 C 5,9 C 12,4 km/h (3 Bft)
19.05.2013 13:20 9,8 C 74 % 1011,4 hPa 0,0 l/m 10,9 km/h (2 Bft) S 180 5,4 C 5,3 C 10,3 km/h (2 Bft)
19.05.2013 13:25 9,6 C 73 % 1011,6 hPa 0,0 l/m 14,5 km/h (3 Bft) S 180 5,0 C 2,5 C 25,7 km/h (4 Bft)
19.05.2013 13:30 9,5 C 74 % 1011,6 hPa 0,0 l/m 14,6 km/h (3 Bft) NW 315 5,1 C 2,1 C 12,6 km/h (3 Bft)
19.05.2013 13:35 9,3 C 74 % 1011,6 hPa 0,0 l/m 14,2 km/h (3 Bft) S 180 4,9 C 2,0 C 36,2 km/h (5 Bft)
19.05.2013 13:40 8,8 C 77 % 1011,6 hPa 0,0 l/m 13,0 km/h (3 Bft) S 180 5,0 C 1,7 C 28,2 km/h (4 Bft)
19.05.2013 13:45 8,4 C 79 % 1011,8 hPa 0,0 l/m 13,4 km/h (3 Bft) S 180 5,0 C 1,0 C 9,7 km/h (2 Bft)
19.05.2013 13:50 7,8 C 82 % 1011,8 hPa 0,0 l/m 12,9 km/h (3 Bft) S 180 4,9 C 0,3 C 15,3 km/h (3 Bft)
19.05.2013 13:55 7,8 C 84 % 1011,8 hPa 0,0 l/m 10,9 km/h (2 Bft) S-SW 202 5,3 C 1,7 C 11,3 km/h (2 Bft)
19.05.2013 14:00 7,6 C 86 % 1011,8 hPa 0,0 l/m 9,2 km/h (2 Bft) S-SO 157 5,4 C 3,2 C 15,9 km/h (3 Bft)
19.05.2013 14:05 7,4 C 87 % 1011,8 hPa 0,0 l/m 8,9 km/h (2 Bft) W-SW 247 5,4 C 3,2 C 7,9 km/h (2 Bft)
19.05.2013 14:10 7,1 C 88 % 1011,8 hPa 0,0 l/m 9,0 km/h (2 Bft) S-SO 157 5,2 C 2,9 C 9,5 km/h (2 Bft)
19.05.2013 14:15 7,0 C 88 % 1011,8 hPa 0,0 l/m 8,7 km/h (2 Bft) W-SW 247 5,2 C 3,0 C 6,4 km/h (2 Bft)
19.05.2013 14:20 6,8 C 89 % 1011,8 hPa 0,7 l/m 8,2 km/h (2 Bft) S 180 5,1 C 3,4 C 10,3 km/h (2 Bft)
19.05.2013 14:25 6,7 C 90 % 1012,6 hPa 0,0 l/m 8,5 km/h (2 Bft) S 180 5,2 C 2,9 C 8,4 km/h (2 Bft)
19.05.2013 14:30 6,7 C 90 % 1012,6 hPa 0,7 l/m 8,9 km/h (2 Bft) S-SO 157 5,2 C 2,5 C 13,0 km/h (3 Bft)
19.05.2013 14:35 6,7 C 90 % 1012,6 hPa 0,0 l/m 8,7 km/h (2 Bft) S 180 5,2 C 2,6 C 11,7 km/h (2 Bft)
19.05.2013 14:40 6,8 C 90 % 1012,6 hPa 0,0 l/m 9,2 km/h (2 Bft) S-SW 202 5,3 C 2,2 C 11,3 km/h (2 Bft)
19.05.2013 14:45 6,8 C 90 % 1012,7 hPa 0,0 l/m 9,0 km/h (2 Bft) SW 225 5,3 C 2,5 C 6,6 km/h (2 Bft)
19.05.2013 14:50 6,9 C 90 % 1012,7 hPa 0,0 l/m 8,7 km/h (2 Bft) S 180 5,4 C 3,0 C 13,2 km/h (3 Bft)
19.05.2013 14:55 7,2 C 90 % 1012,7 hPa 0,0 l/m 8,7 km/h (2 Bft) S 180 5,7 C 3,4 C 10,1 km/h (2 Bft)
19.05.2013 15:00 7,3 C 90 % 1012,7 hPa 0,0 l/m 7,2 km/h (2 Bft) S 180 5,8 C 5,4 C 5,3 km/h (1 Bft)
19.05.2013 15:05 7,6 C 90 % 1012,4 hPa 0,0 l/m 5,3 km/h (1 Bft) O-SO 112 6,1 C 6,9 C 12,1 km/h (2 Bft)
19.05.2013 15:10 7,6 C 91 % 1012,4 hPa 0,0 l/m 4,7 km/h (1 Bft) S-SW 202 6,2 C 7,2 C 6,6 km/h (2 Bft)
19.05.2013 15:15 7,4 C 91 % 1012,4 hPa 0,0 l/m 4,8 km/h (1 Bft) S-SO 157 6,0 C 7,1 C 2,3 km/h (1 Bft)
19.05.2013 15:20 7,2 C 90 % 1012,4 hPa 0,0 l/m 4,2 km/h (1 Bft) S 180 5,7 C 7,1 C 7,1 km/h (2 Bft)
19.05.2013 15:25 7,3 C 91 % 1012,8 hPa 0,0 l/m 4,0 km/h (1 Bft) S-SW 202 5,9 C 7,0 C 4,0 km/h (1 Bft)
19.05.2013 15:30 7,3 C 91 % 1012,8 hPa 0,0 l/m 4,7 km/h (1 Bft) S-SW 202 5,9 C 6,7 C 7,4 km/h (2 Bft)
19.05.2013 15:35 7,3 C 91 % 1012,8 hPa 0,0 l/m 4,8 km/h (1 Bft) S-SO 157 5,9 C 6,7 C 8,4 km/h (2 Bft)
19.05.2013 15:40 7,4 C 91 % 1012,8 hPa 0,0 l/m 4,7 km/h (1 Bft) S 180 6,0 C 6,7 C 3,5 km/h (1 Bft)
19.05.2013 15:45 7,5 C 91 % 1012,7 hPa 0,0 l/m 4,7 km/h (1 Bft) S 180 6,1 C 6,8 C 8,9 km/h (2 Bft)
19.05.2013 15:50 7,4 C 91 % 1012,7 hPa 0,0 l/m 4,0 km/h (1 Bft) S 180 6,0 C 7,0 C 6,0 km/h (2 Bft)
19.05.2013 15:55 7,4 C 91 % 1012,7 hPa 0,0 l/m 4,7 km/h (1 Bft) W 270 6,0 C 6,8 C 3,7 km/h (1 Bft)
19.05.2013 16:00 7,6 C 91 % 1012,7 hPa 0,0 l/m 4,7 km/h (1 Bft) S 180 6,2 C 6,9 C 4,3 km/h (1 Bft)
19.05.2013 16:05 7,7 C 91 % 1012,6 hPa 0,0 l/m 3,9 km/h (1 Bft) S-SW 202 6,3 C 7,3 C 8,2 km/h (2 Bft)
19.05.2013 16:10 7,7 C 91 % 1012,6 hPa 0,0 l/m 4,7 km/h (1 Bft) S-SW 202 6,3 C 7,2 C 3,5 km/h (1 Bft)
19.05.2013 16:15 7,7 C 91 % 1012,6 hPa 0,0 l/m 5,1 km/h (1 Bft) SO 135 6,3 C 7,1 C 7,7 km/h (2 Bft)
19.05.2013 16:20 7,8 C 91 % 1012,6 hPa 0,0 l/m 5,0 km/h (1 Bft) S 180 6,4 C 7,3 C 7,9 km/h (2 Bft)
19.05.2013 16:25 7,9 C 91 % 1012,6 hPa 0,0 l/m 5,0 km/h (1 Bft) S-SW 202 6,5 C 7,3 C 9,5 km/h (2 Bft)
19.05.2013 16:30 7,8 C 90 % 1012,6 hPa 0,0 l/m 5,6 km/h (1 Bft) S 180 6,3 C 7,3 C 6,4 km/h (2 Bft)
19.05.2013 16:35 7,9 C 90 % 1012,6 hPa 0,0 l/m 6,3 km/h (2 Bft) S 180 6,4 C 7,1 C 10,8 km/h (2 Bft)
19.05.2013 16:40 8,0 C 90 % 1012,6 hPa 0,0 l/m 6,1 km/h (2 Bft) S-SO 157 6,5 C 7,2 C 6,6 km/h (2 Bft)
19.05.2013 16:45 8,0 C 90 % 1012,7 hPa 0,0 l/m 6,0 km/h (2 Bft) S 180 6,5 C 7,4 C 7,1 km/h (2 Bft)
19.05.2013 16:50 8,2 C 90 % 1012,7 hPa 0,0 l/m 4,7 km/h (1 Bft) SO 135 6,7 C 7,9 C 5,0 km/h (1 Bft)
19.05.2013 16:55 8,1 C 89 % 1012,7 hPa 0,0 l/m 5,3 km/h (1 Bft) S 180 6,4 C 7,7 C 7,9 km/h (2 Bft)
19.05.2013 17:00 7,7 C 88 % 1012,7 hPa 0,0 l/m 7,4 km/h (2 Bft) S 180 5,8 C 6,0 C 6,4 km/h (2 Bft)
19.05.2013 17:05 7,6 C 88 % 1012,8 hPa 0,0 l/m 6,9 km/h (2 Bft) O-SO 112 5,7 C 6,3 C 5,3 km/h (1 Bft)
19.05.2013 17:10 7,4 C 89 % 1012,8 hPa 0,0 l/m 4,5 km/h (1 Bft) SO 135 5,7 C 7,1 C 4,2 km/h (1 Bft)
19.05.2013 17:15 7,1 C 88 % 1012,8 hPa 0,0 l/m 3,9 km/h (1 Bft) O-SO 112 5,2 C 7,1 C 0,0 km/h (0 Bft)
19.05.2013 17:20 6,9 C 89 % 1012,8 hPa 0,0 l/m 4,8 km/h (1 Bft) O-SO 112 5,2 C 6,1 C 8,2 km/h (2 Bft)
19.05.2013 17:25 6,7 C 89 % 1013,0 hPa 0,0 l/m 4,0 km/h (1 Bft) S-SO 157 5,0 C 6,2 C 6,4 km/h (2 Bft)
19.05.2013 17:30 6,5 C 90 % 1013,0 hPa 0,0 l/m 1,9 km/h (1 Bft) S-SO 157 5,0 C 6,3 C 2,6 km/h (1 Bft)
19.05.2013 17:35 6,5 C 90 % 1013,0 hPa 0,0 l/m 1,8 km/h (1 Bft) O-NO 67 5,0 C 6,2 C 0,0 km/h (0 Bft)
19.05.2013 17:40 6,5 C 91 % 1013,0 hPa 0,0 l/m 1,6 km/h (1 Bft) S 180 5,1 C 6,2 C 3,4 km/h (1 Bft)
19.05.2013 17:45 6,5 C 91 % 1012,9 hPa 0,7 l/m 1,3 km/h (1 Bft) O-NO 67 5,1 C 6,2 C 0,0 km/h (0 Bft)
19.05.2013 17:50 6,3 C 91 % 1012,9 hPa 0,0 l/m 0,8 km/h (0 Bft) NO 45 4,9 C 6,1 C 2,4 km/h (1 Bft)
19.05.2013 17:55 6,2 C 91 % 1012,9 hPa 0,0 l/m 0,8 km/h (0 Bft) N 360 4,8 C 6,1 C 2,6 km/h (1 Bft)
19.05.2013 18:00 6,3 C 92 % 1012,9 hPa 0,0 l/m 1,1 km/h (1 Bft) N-NO 22 5,1 C 6,1 C 1,9 km/h (1 Bft)
19.05.2013 18:05 6,3 C 92 % 1012,9 hPa 0,0 l/m 0,6 km/h (0 Bft) NO 45 5,1 C 6,1 C 0,0 km/h (0 Bft)
19.05.2013 18:10 6,3 C 92 % 1012,9 hPa 0,0 l/m 0,3 km/h (0 Bft) N 360 5,1 C 6,2 C 2,6 km/h (1 Bft)
19.05.2013 18:15 6,4 C 92 % 1012,9 hPa 0,0 l/m 0,2 km/h (0 Bft) N-NW 337 5,2 C 6,2 C 1,8 km/h (1 Bft)
19.05.2013 18:20 6,4 C 92 % 1012,9 hPa 0,0 l/m 0,5 km/h (0 Bft) NO 45 5,2 C 6,4 C 1,6 km/h (1 Bft)
19.05.2013 18:25 6,5 C 93 % 1012,7 hPa 0,0 l/m 0,5 km/h (0 Bft) S 180 5,5 C 6,5 C 0,0 km/h (0 Bft)
19.05.2013 18:30 6,7 C 93 % 1012,7 hPa 0,0 l/m 0,3 km/h (0 Bft) NW 315 5,6 C 6,7 C 3,1 km/h (1 Bft)
19.05.2013 18:35 6,8 C 93 % 1012,7 hPa 0,0 l/m 0,3 km/h (0 Bft) W-NW 292 5,7 C 6,8 C 1,6 km/h (1 Bft)
19.05.2013 18:40 6,8 C 93 % 1012,7 hPa 0,0 l/m 0,3 km/h (0 Bft) N-NO 22 5,7 C 7,0 C 0,0 km/h (0 Bft)
19.05.2013 18:45 6,8 C 93 % 1012,7 hPa 0,0 l/m 0,0 km/h (0 Bft) NO 45 5,7 C 7,1 C 0,0 km/h (0 Bft)
19.05.2013 18:50 6,8 C 93 % 1012,7 hPa 0,0 l/m 0,0 km/h (0 Bft) W-NW 292 5,7 C 7,3 C 0,0 km/h (0 Bft)
19.05.2013 18:55 6,9 C 93 % 1012,7 hPa 0,0 l/m 0,2 km/h (0 Bft) O-NO 67 5,8 C 7,4 C 0,0 km/h (0 Bft)
19.05.2013 19:00 7,0 C 93 % 1012,7 hPa 0,0 l/m 0,5 km/h (0 Bft) NO 45 5,9 C 7,5 C 0,0 km/h (0 Bft)
19.05.2013 19:05 7,0 C 93 % 1012,7 hPa 0,0 l/m 0,3 km/h (0 Bft) N 360 5,9 C 7,6 C 1,9 km/h (1 Bft)
19.05.2013 19:10 7,2 C 92 % 1012,7 hPa 0,0 l/m 0,3 km/h (0 Bft) N-NO 22 6,0 C 7,8 C 0,0 km/h (0 Bft)
19.05.2013 19:15 7,3 C 92 % 1012,7 hPa 0,0 l/m 0,5 km/h (0 Bft) O-NO 67 6,1 C 7,9 C 2,9 km/h (1 Bft)
19.05.2013 19:20 7,3 C 91 % 1012,7 hPa 0,0 l/m 0,6 km/h (0 Bft) O-NO 67 5,9 C 8,1 C 0,0 km/h (0 Bft)
19.05.2013 19:25 7,5 C 91 % 1012,9 hPa 0,0 l/m 0,6 km/h (0 Bft) S 180 6,1 C 8,3 C 1,9 km/h (1 Bft)
19.05.2013 19:30 7,6 C 91 % 1012,9 hPa 0,0 l/m 1,0 km/h (0 Bft) NO 45 6,2 C 8,5 C 0,0 km/h (0 Bft)
19.05.2013 19:35 7,7 C 91 % 1012,9 hPa 0,0 l/m 1,0 km/h (0 Bft) S-SW 202 6,3 C 8,8 C 0,0 km/h (0 Bft)
19.05.2013 19:40 7,8 C 92 % 1012,9 hPa 0,0 l/m 0,2 km/h (0 Bft) W-NW 292 6,6 C 9,2 C 0,0 km/h (0 Bft)
19.05.2013 19:45 7,7 C 91 % 1012,9 hPa 0,0 l/m 0,0 km/h (0 Bft) O-SO 112 6,3 C 9,4 C 0,0 km/h (0 Bft)
19.05.2013 19:50 7,7 C 91 % 1012,9 hPa 0,0 l/m 0,0 km/h (0 Bft) N-NW 337 6,3 C 9,5 C 0,0 km/h (0 Bft)
19.05.2013 19:55 7,8 C 91 % 1012,9 hPa 0,0 l/m 0,0 km/h (0 Bft) W-SW 247 6,4 C 9,7 C 0,0 km/h (0 Bft)
19.05.2013 20:00 8,0 C 90 % 1012,9 hPa 0,0 l/m 0,0 km/h (0 Bft) N-NO 22 6,5 C 10,2 C 1,6 km/h (1 Bft)
19.05.2013 20:05 8,2 C 90 % 1012,9 hPa 0,0 l/m 0,0 km/h (0 Bft) NO 45 6,7 C 10,7 C 0,0 km/h (0 Bft)
19.05.2013 20:10 8,6 C 90 % 1012,9 hPa 0,0 l/m 0,0 km/h (0 Bft) S 180 7,1 C 12,0 C 0,0 km/h (0 Bft)
19.05.2013 20:15 8,7 C 90 % 1012,9 hPa 0,0 l/m 0,0 km/h (0 Bft) W 270 7,2 C 12,7 C 0,0 km/h (0 Bft)
19.05.2013 20:20 8,6 C 90 % 1012,9 hPa 0,0 l/m 0,2 km/h (0 Bft) O-SO 112 7,1 C 13,1 C 0,0 km/h (0 Bft)
19.05.2013 20:25 8,3 C 90 % 1012,7 hPa 0,0 l/m 0,2 km/h (0 Bft) O 90 6,8 C 12,7 C 0,0 km/h (0 Bft)
19.05.2013 20:30 7,8 C 90 % 1012,7 hPa 0,0 l/m 0,2 km/h (0 Bft) S-SO 157 6,3 C 11,7 C 0,0 km/h (0 Bft)
19.05.2013 20:35 7,6 C 90 % 1012,7 hPa 0,0 l/m 0,5 km/h (0 Bft) O-SO 112 6,1 C 11,0 C 5,3 km/h (1 Bft)
19.05.2013 20:40 7,2 C 90 % 1012,7 hPa 0,0 l/m 1,4 km/h (1 Bft) O-NO 67 5,7 C 10,3 C 2,1 km/h (1 Bft)
19.05.2013 20:45 6,9 C 90 % 1012,9 hPa 0,0 l/m 1,6 km/h (1 Bft) O-SO 112 5,4 C 9,7 C 0,0 km/h (0 Bft)
19.05.2013 20:50 6,5 C 90 % 1012,9 hPa 0,0 l/m 1,1 km/h (1 Bft) NO 45 5,0 C 8,2 C 1,8 km/h (1 Bft)
19.05.2013 20:55 6,3 C 90 % 1012,9 hPa 0,0 l/m 1,8 km/h (1 Bft) O 90 4,8 C 7,4 C 2,4 km/h (1 Bft)
19.05.2013 21:00 6,1 C 90 % 1012,9 hPa 0,0 l/m 2,3 km/h (1 Bft) NO 45 4,6 C 6,6 C 4,8 km/h (1 Bft)
19.05.2013 21:05 5,9 C 91 % 1012,4 hPa 0,0 l/m 2,3 km/h (1 Bft) NO 45 4,5 C 6,2 C 4,8 km/h (1 Bft)
19.05.2013 21:10 5,6 C 92 % 1012,4 hPa 0,0 l/m 1,0 km/h (0 Bft) N 360 4,4 C 5,7 C 0,0 km/h (0 Bft)
19.05.2013 21:15 5,6 C 92 % 1012,4 hPa 0,0 l/m 0,8 km/h (0 Bft) N-NO 22 4,4 C 5,4 C 2,3 km/h (1 Bft)
19.05.2013 21:20 5,4 C 93 % 1012,4 hPa 0,0 l/m 0,6 km/h (0 Bft) NO 45 4,4 C 5,3 C 2,9 km/h (1 Bft)
19.05.2013 21:25 5,4 C 93 % 1012,4 hPa 0,0 l/m 0,3 km/h (0 Bft) N-NO 22 4,4 C 5,2 C 0,0 km/h (0 Bft)
19.05.2013 21:30 5,4 C 93 % 1012,4 hPa 0,0 l/m 0,6 km/h (0 Bft) N-NO 22 4,4 C 5,2 C 0,0 km/h (0 Bft)
19.05.2013 21:35 5,4 C 94 % 1012,4 hPa 0,0 l/m 0,5 km/h (0 Bft) S 180 4,5 C 5,2 C 1,6 km/h (1 Bft)
19.05.2013 21:40 5,4 C 94 % 1012,4 hPa 0,0 l/m 0,2 km/h (0 Bft) W-SW 247 4,5 C 5,2 C 0,0 km/h (0 Bft)
19.05.2013 21:45 5,4 C 94 % 1012,4 hPa 0,0 l/m 0,5 km/h (0 Bft) N 360 4,5 C 5,2 C 0,0 km/h (0 Bft)
19.05.2013 21:50 5,4 C 94 % 1012,4 hPa 0,0 l/m 0,3 km/h (0 Bft) W-NW 292 4,5 C 5,2 C 0,0 km/h (0 Bft)
19.05.2013 21:55 5,6 C 94 % 1012,4 hPa 0,0 l/m 0,3 km/h (0 Bft) S-SW 202 4,7 C 5,2 C 2,6 km/h (1 Bft)
19.05.2013 22:00 5,6 C 95 % 1012,4 hPa 0,0 l/m 1,0 km/h (0 Bft) NO 45 4,9 C 5,3 C 3,9 km/h (1 Bft)
19.05.2013 22:05 5,6 C 95 % 1012,9 hPa 0,0 l/m 1,0 km/h (0 Bft) SO 135 4,9 C 5,3 C 0,0 km/h (0 Bft)
19.05.2013 22:10 5,6 C 95 % 1012,9 hPa 0,0 l/m 0,5 km/h (0 Bft) W-NW 292 4,9 C 5,4 C 0,0 km/h (0 Bft)
19.05.2013 22:15 5,7 C 95 % 1012,9 hPa 0,0 l/m 0,0 km/h (0 Bft) SO 135 5,0 C 5,4 C 0,0 km/h (0 Bft)
19.05.2013 22:20 5,8 C 95 % 1012,9 hPa 0,0 l/m 0,0 km/h (0 Bft) S 180 5,1 C 5,5 C 1,8 km/h (1 Bft)
19.05.2013 22:25 5,8 C 95 % 1013,3 hPa 0,0 l/m 0,5 km/h (0 Bft) NO 45 5,1 C 5,5 C 0,0 km/h (0 Bft)
19.05.2013 22:30 5,8 C 95 % 1013,3 hPa 0,0 l/m 0,5 km/h (0 Bft) NO 45 5,1 C 5,5 C 0,0 km/h (0 Bft)
19.05.2013 22:35 5,9 C 95 % 1013,3 hPa 0,0 l/m 0,5 km/h (0 Bft) O 90 5,2 C 5,5 C 0,0 km/h (0 Bft)
19.05.2013 22:40 6,1 C 94 % 1013,3 hPa 0,0 l/m 0,6 km/h (0 Bft) O 90 5,2 C 5,6 C 0,0 km/h (0 Bft)
19.05.2013 22:45 6,1 C 94 % 1013,4 hPa 0,0 l/m 0,3 km/h (0 Bft) SO 135 5,2 C 5,8 C 0,0 km/h (0 Bft)
19.05.2013 22:50 6,4 C 94 % 1013,4 hPa 0,0 l/m 1,0 km/h (0 Bft) O-SO 112 5,5 C 6,0 C 2,4 km/h (1 Bft)
19.05.2013 22:55 6,5 C 94 % 1013,4 hPa 0,0 l/m 1,0 km/h (0 Bft) W 270 5,6 C 6,0 C 0,0 km/h (0 Bft)
19.05.2013 23:00 6,4 C 94 % 1013,4 hPa 0,0 l/m 0,3 km/h (0 Bft) W 270 5,5 C 6,1 C 0,0 km/h (0 Bft)
19.05.2013 23:05 6,4 C 94 % 1013,3 hPa 0,0 l/m 0,0 km/h (0 Bft) N-NW 337 5,5 C 6,2 C 0,0 km/h (0 Bft)
19.05.2013 23:10 6,4 C 94 % 1013,3 hPa 0,0 l/m 0,2 km/h (0 Bft) N-NW 337 5,5 C 6,2 C 0,0 km/h (0 Bft)
19.05.2013 23:15 6,4 C 94 % 1013,3 hPa 0,0 l/m 0,5 km/h (0 Bft) NO 45 5,5 C 6,2 C 2,6 km/h (1 Bft)
19.05.2013 23:20 6,3 C 94 % 1013,3 hPa 0,0 l/m 1,0 km/h (0 Bft) O 90 5,4 C 6,0 C 0,0 km/h (0 Bft)
19.05.2013 23:25 6,3 C 94 % 1013,5 hPa 0,0 l/m 0,8 km/h (0 Bft) NO 45 5,4 C 6,0 C 0,0 km/h (0 Bft)
19.05.2013 23:30 6,4 C 94 % 1013,5 hPa 0,0 l/m 0,2 km/h (0 Bft) O 90 5,5 C 6,0 C 2,9 km/h (1 Bft)
19.05.2013 23:35 6,7 C 94 % 1013,5 hPa 0,0 l/m 1,3 km/h (1 Bft) S 180 5,8 C 6,3 C 4,7 km/h (1 Bft)
19.05.2013 23:40 7,2 C 94 % 1013,5 hPa 0,0 l/m 2,4 km/h (1 Bft) S-SO 157 6,3 C 7,0 C 5,0 km/h (1 Bft)
19.05.2013 23:45 7,3 C 94 % 1013,7 hPa 0,0 l/m 3,7 km/h (1 Bft) SO 135 6,4 C 7,2 C 11,6 km/h (2 Bft)
19.05.2013 23:50 7,4 C 94 % 1013,7 hPa 0,0 l/m 3,9 km/h (1 Bft) S 180 6,5 C 7,5 C 4,5 km/h (1 Bft)
19.05.2013 23:55 7,4 C 94 % 1013,7 hPa 0,0 l/m 3,2 km/h (1 Bft) SO 135 6,5 C 7,6 C 4,5 km/h (1 Bft)
_ Min-Zeit 21:50 00:55 06:00 - 23:05 - - 00:55 13:50 23:25
Minimum _ 5,4 C 52 % 1007,8 hPa - 0,0 km/h (0 Bft) - - 3,6 C 0,3 C 0,0 km/h (0 Bft)
_ Max-Zeit 11:25 22:35 23:55 17:45 13:30 - - 11:25 11:30 13:35
Maximum _ 16,3 C 95 % 1013,7 hPa 0,7 l/m 14,6 km/h
NW (3 Bft)
- - 8,5 C 15,1 C 36,2 km/h
S (5 Bft)
Durchschnitt _ 10,3 C 74 % 1010,6 hPa #2,1 l/m 3,8 km/h (1 Bft) S - 5,6 C 9,9 C 5,1 km/h (1 Bft)